TimeEST,TemperatureF,Dew PointF,Humidity,Sea Level PressureIn,VisibilityMPH,Wind Direction,Wind SpeedMPH,Gust SpeedMPH,PrecipitationIn,Events,Conditions,WindDirDegrees,DateUTC
12:53 AM,34.0,26.1,73,30.03,10.0,WSW,11.5,-,N/A,,Overcast,250,2013-01-17 05:53:00
1:53 AM,34.0,27.0,75,30.06,10.0,WSW,9.2,-,N/A,,Overcast,250,2013-01-17 06:53:00
2:53 AM,34.0,27.0,75,30.08,10.0,WSW,9.2,-,N/A,,Overcast,250,2013-01-17 07:53:00
3:53 AM,35.1,27.0,72,30.08,10.0,West,9.2,-,N/A,,Overcast,270,2013-01-17 08:53:00
4:53 AM,34.0,27.0,75,30.09,10.0,WSW,5.8,-,N/A,,Overcast,250,2013-01-17 09:53:00
5:15 AM,33.8,26.6,75,30.08,10.0,WSW,4.6,-,N/A,,Overcast,240,2013-01-17 10:15:00
6:53 AM,30.0,26.1,85,30.14,7.0,Calm,Calm,-,N/A,,Clear,0,2013-01-17 11:53:00
7:53 AM,28.9,26.1,89,30.16,7.0,West,3.5,-,N/A,,Clear,270,2013-01-17 12:53:00
8:53 AM,28.9,25.0,85,30.18,4.0,SSW,4.6,-,N/A,,Clear,210,2013-01-17 13:53:00
9:53 AM,32.0,28.0,85,30.21,5.0,WSW,4.6,-,N/A,,Clear,240,2013-01-17 14:53:00
10:53 AM,35.1,28.9,78,30.22,7.0,West,5.8,-,N/A,,Clear,260,2013-01-17 15:53:00
11:25 AM,35.6,24.8,65,30.20,10.0,NW,5.8,-,N/A,,Mostly Cloudy,310,2013-01-17 16:25:00
11:42 AM,37.4,26.6,65,30.19,10.0,WNW,8.1,-,N/A,,Mostly Cloudy,290,2013-01-17 16:42:00
11:53 AM,36.0,25.0,64,30.21,10.0,NNW,8.1,-,N/A,,Scattered Clouds,330,2013-01-17 16:53:00
12:53 PM,37.9,24.1,57,30.18,10.0,NW,11.5,-,N/A,,Partly Cloudy,320,2013-01-17 17:53:00
1:53 PM,39.9,23.0,51,30.15,10.0,West,10.4,18.4,N/A,,Clear,280,2013-01-17 18:53:00
2:53 PM,39.9,23.0,51,30.13,10.0,West,16.1,-,N/A,,Clear,270,2013-01-17 19:53:00
3:53 PM,41.0,23.0,49,30.13,10.0,West,13.8,21.9,N/A,,Mostly Cloudy,280,2013-01-17 20:53:00
4:53 PM,37.0,19.0,48,30.16,10.0,WNW,19.6,26.5,N/A,,Clear,300,2013-01-17 21:53:00
5:53 PM,33.1,18.0,54,30.20,10.0,NW,19.6,-,N/A,,Clear,310,2013-01-17 22:53:00
6:53 PM,30.0,15.1,54,30.25,10.0,NW,19.6,28.8,N/A,,Clear,310,2013-01-17 23:53:00
7:53 PM,26.1,15.1,63,30.30,10.0,NW,15.0,23.0,N/A,,Clear,320,2013-01-18 00:53:00
8:53 PM,24.1,12.0,60,30.33,10.0,NW,20.7,27.6,N/A,,Clear,310,2013-01-18 01:53:00
9:53 PM,23.0,8.1,53,30.34,10.0,NW,20.7,27.6,N/A,,Clear,310,2013-01-18 02:53:00
10:53 PM,21.9,8.1,55,30.35,10.0,NW,13.8,-,N/A,,Clear,320,2013-01-18 03:53:00
11:53 PM,19.0,9.0,65,30.36,10.0,NW,5.8,-,N/A,,Clear,310,2013-01-18 04:53:00